Date,TemperatureHighF,TemperatureAvgF,TemperatureLowF,DewpointHighF,DewpointAvgF,DewpointLowF,HumidityHigh,HumidityAvg,HumidityLow,PressureMaxIn,PressureMinIn,WindSpeedMaxMPH,WindSpeedAvgMPH,GustSpeedMaxMPH,PrecipitationSumIn
2013-4-18,61.3,59.2,30.2,59.9,58.1,18.8,98,96,62,30.06,29.50,11,3,12,12.28
2013-4-19,58.5,39.3,33.1,57.9,33.3,27.1,98,80,61,29.76,29.44,11,3,11,0.53
2013-4-20,41.0,34.3,28.6,31.2,19.7,12.9,92,56,38,30.41,29.76,7,2,9,0.04
2013-4-21,52.3,39.7,24.4,29.4,22.8,14.1,79,53,37,30.53,30.33,10,2,10,0.00
2013-4-22,41.7,36.7,34.2,30.9,26.8,25.6,74,67,62,30.36,30.27,8,1,8,0.00
2013-4-25,46.0,41.3,37.0,28.3,27.3,26.5,68,58,49,30.30,30.24,3,0,3,0.00
2013-4-26,64.2,49.6,34.5,36.2,31.4,27.1,76,52,34,30.39,30.21,11,2,11,0.00
2013-4-27,70.9,57.4,40.6,40.2,35.4,31.5,75,46,27,30.30,30.00,8,1,8,0.00
2013-4-28,61.0,55.4,51.4,53.6,45.6,33.9,92,71,44,30.00,29.79,4,1,4,0.04
2013-4-29,73.8,60.0,44.6,58.5,49.6,43.0,96,72,43,29.94,29.82,8,1,8,0.00
2013-4-30,77.9,65.8,54.3,59.8,54.7,0.0,94,69,16,29.97,29.85,8,3,10,0.20
2013-5-1,85.1,72.7,59.9,57.8,53.0,50.0,74,53,32,30.15,29.97,8,1,8,0.00
2013-5-2,84.4,70.4,58.8,57.0,52.9,47.8,80,56,36,30.15,29.97,9,1,9,0.00
2013-5-3,82.0,68.2,55.9,57.8,49.6,36.9,79,55,34,30.09,29.91,11,1,11,0.00
2013-5-4,75.0,65.2,58.5,47.6,39.9,33.3,50,40,25,30.06,29.91,8,1,8,0.00
2013-5-5,77.9,63.9,52.7,46.8,38.5,29.1,59,41,25,30.06,29.94,8,1,8,0.00
2013-5-6,78.1,63.8,50.7,42.7,37.5,31.8,57,40,22,30.03,29.88,6,1,6,0.00
2013-5-7,76.6,69.9,60.4,50.6,48.1,45.9,63,47,35,30.00,29.91,5,0,5,0.00
2013-5-8,80.6,66.2,53.4,55.3,49.8,45.5,86,59,31,30.00,29.85,5,0,5,0.00
2013-5-9,81.7,65.3,52.0,59.2,49.5,41.8,92,62,26,30.03,29.85,4,0,4,0.13
2013-5-10,62.2,54.8,45.7,60.1,52.6,43.7,96,92,80,29.94,29.74,5,0,5,0.21
2013-5-11,57.2,47.4,39.0,48.5,41.1,30.6,95,80,51,29.94,29.76,9,1,9,0.04
2013-5-12,47.8,41.3,35.1,34.4,28.1,23.7,85,61,43,30.12,29.91,9,2,9,0.00
2013-5-13,57.4,45.8,34.0,33.0,26.3,21.3,84,50,28,30.21,30.03,7,1,7,0.00
2013-5-14,80.6,63.6,48.0,52.3,40.3,24.6,58,43,35,30.06,29.65,11,2,11,0.00
2013-5-15,75.4,69.6,59.2,57.6,46.4,37.1,62,45,33,29.82,29.56,10,1,10,0.00
2013-5-16,84.4,67.7,51.8,48.2,42.9,0.0,72,44,23,29.97,29.79,8,1,8,0.00
2013-5-17,76.1,65.7,54.9,48.2,43.1,38.4,56,44,35,30.24,29.97,6,1,6,0.00
2013-5-18,82.2,69.3,57.0,56.4,47.6,37.0,61,46,39,30.18,29.94,9,1,9,0.00
2013-5-19,87.4,73.2,57.9,61.8,53.7,43.1,67,51,39,30.03,29.76,9,1,9,0.00
2013-5-20,88.0,77.4,67.1,70.1,63.0,57.9,85,63,38,29.88,29.74,12,2,12,0.00
2013-5-21,80.2,72.6,63.7,65.2,62.5,58.6,95,72,51,29.79,29.68,10,1,10,0.50
2013-5-22,72.5,66.4,60.1,68.4,63.3,58.7,96,90,81,29.71,29.65,7,0,7,0.91
2013-5-23,60.8,55.9,52.3,59.8,54.1,47.1,97,94,76,30.06,29.68,6,0,6,0.08
2013-5-25,68.4,61.6,51.4,42.8,37.4,35.1,61,41,34,30.33,30.21,6,1,6,0.08
2013-5-26,70.5,58.5,43.7,44.7,38.9,33.5,82,52,29,30.41,30.21,10,1,10,0.08
2013-5-27,59.5,54.8,51.4,52.4,44.5,0.0,95,71,43,30.21,29.94,8,2,8,0.08
2013-5-28,77.5,66.4,53.8,69.1,62.1,52.4,98,87,70,29.97,29.76,8,1,8,1.17
2013-5-29,79.7,70.8,61.9,68.1,64.4,60.4,97,82,59,29.97,29.79,6,1,6,0.12
2013-5-30,85.5,75.8,67.6,69.3,65.4,62.3,92,71,48,29.97,29.85,13,1,13,0.12
2013-5-31,77.9,72.7,65.7,66.5,64.5,62.1,93,76,63,29.94,29.76,9,2,9,0.04
2013-6-1,78.4,70.0,63.0,65.1,62.5,58.1,95,78,57,29.79,29.68,9,2,9,0.13
2013-6-2,63.1,59.1,48.7,60.6,51.3,40.8,95,77,55,30.03,29.68,7,1,7,0.12
2013-6-3,67.1,55.3,42.4,43.7,39.9,34.4,90,59,36,30.18,30.00,6,1,6,0.00
2013-6-4,75.0,61.4,47.5,47.2,43.9,40.0,80,55,35,30.24,30.09,6,1,6,0.12
2013-6-5,74.5,64.8,57.9,46.4,42.9,38.2,65,46,32,30.21,29.94,7,1,7,0.00
2013-6-6,68.5,61.4,57.2,53.4,48.5,42.5,75,63,51,30.00,29.85,6,1,6,0.00
2013-6-7,70.9,60.5,51.1,52.2,48.8,46.7,88,67,45,29.97,29.85,7,1,7,0.00
2013-6-8,76.5,63.8,51.4,55.0,49.9,47.0,91,64,40,30.03,29.91,5,0,5,0.12
2013-6-9,79.9,69.4,58.5,62.7,57.1,48.2,83,66,49,30.06,29.85,172,1,172,0.12
2013-6-10,70.0,66.5,63.5,68.2,64.0,57.2,97,92,65,29.91,29.74,6,0,6,0.95
2013-6-11,82.6,69.4,59.0,68.3,62.7,58.4,98,81,55,29.94,29.79,6,0,6,0.12
2013-6-12,79.5,72.9,64.4,70.1,66.0,61.8,95,80,63,29.91,29.59,10,1,172,0.04
2013-6-15,69.3,67.2,65.8,63.6,62.6,61.4,91,85,78,30.00,29.88,8,2,8,0.04
2013-6-16,80.6,71.2,64.2,66.5,61.1,51.8,97,73,41,29.91,29.82,6,1,6,0.25
2013-6-17,88.2,73.7,60.4,63.4,55.7,49.9,89,58,29,29.94,29.79,7,1,7,0.00
2013-6-18,74.8,66.4,58.8,59.0,52.2,44.0,91,62,42,30.06,29.85,7,1,7,0.00
2013-6-19,75.9,63.7,49.5,47.0,43.8,41.5,76,51,32,30.21,30.06,8,1,8,0.00
2013-6-20,83.3,70.1,55.9,56.9,52.1,46.7,82,56,34,30.21,30.06,6,0,6,0.00
2013-6-21,86.4,75.5,64.8,63.5,59.4,55.2,81,59,41,30.18,29.85,12,1,12,0.00
2013-6-22,85.3,76.7,69.6,70.5,66.8,61.3,81,72,58,30.09,29.91,6,1,6,0.00
2013-6-23,90.0,79.1,68.7,69.6,65.1,62.2,85,64,43,30.03,29.91,8,1,8,0.00
2013-6-24,87.6,77.5,68.7,70.2,66.2,61.9,90,70,46,30.06,29.85,8,1,8,0.00
2013-6-25,82.8,72.2,66.0,73.9,67.7,62.6,97,86,71,30.00,29.79,5,0,5,2.99
2013-6-26,80.2,71.5,66.4,71.9,67.8,65.2,97,89,67,29.88,29.68,7,0,7,0.75
2013-6-27,84.2,74.5,67.6,72.8,68.6,66.2,97,83,57,29.74,29.65,8,0,8,0.00
2013-6-28,82.0,72.4,66.7,68.0,63.0,57.9,95,74,52,29.65,29.53,10,1,10,0.00
2013-6-29,75.7,68.4,62.2,63.5,60.6,57.2,94,77,61,29.76,29.50,6,1,6,0.00
2013-6-30,80.4,67.5,60.8,65.3,59.4,54.9,92,76,45,30.00,29.74,4,0,227,0.33
2013-7-1,74.8,65.4,54.9,55.1,50.1,46.7,82,59,41,30.09,29.97,8,1,8,0.00
2013-7-2,68.0,62.1,54.9,65.3,57.9,45.2,96,87,53,30.09,30.03,5,0,5,0.54
2013-7-3,80.8,69.7,62.1,66.2,62.9,58.4,98,81,50,30.12,30.00,8,1,8,0.00
2013-7-4,81.3,70.7,62.2,64.9,61.3,55.7,95,74,43,30.18,30.03,6,0,6,0.00
2013-7-5,84.9,74.1,64.2,65.9,61.4,51.0,92,68,32,30.12,29.97,6,1,6,0.00
2013-7-6,82.9,75.3,68.5,68.7,66.6,64.5,90,75,57,30.09,29.97,6,0,6,0.00
2013-7-7,85.1,75.5,67.8,71.4,68.5,65.6,93,80,56,30.03,29.94,6,1,6,0.00
2013-7-8,80.1,74.6,71.1,72.6,69.6,66.4,95,85,70,30.00,29.91,8,1,8,0.04
2013-7-9,78.4,72.9,69.6,75.3,71.0,68.3,97,94,89,29.97,29.85,3,0,3,0.37
2013-7-10,84.0,75.8,64.6,75.7,66.4,52.6,96,75,45,29.97,29.79,8,1,8,0.00
2013-7-11,76.1,66.3,60.8,56.8,54.9,52.9,83,68,49,30.06,29.97,5,0,5,0.00
2013-7-12,81.9,70.1,58.6,61.3,55.2,49.0,89,63,34,30.21,30.06,6,1,6,0.00
2013-7-13,84.6,73.2,61.5,64.1,60.2,56.5,91,66,45,30.21,30.09,6,1,6,0.00
2013-7-14,90.0,78.3,66.7,68.7,64.8,59.2,88,65,43,30.24,30.15,8,1,8,0.00
2013-7-15,91.9,79.9,70.7,75.5,71.1,66.8,90,75,52,30.30,30.18,6,0,6,0.00
2013-7-16,93.2,82.4,73.9,74.7,72.4,69.2,93,74,50,30.33,30.21,5,0,5,0.00
2013-7-17,92.5,82.7,75.2,76.7,72.2,69.7,87,72,53,30.33,30.15,6,1,6,0.00
2013-7-18,94.3,83.9,75.4,76.8,72.1,67.4,88,69,46,30.18,29.91,6,1,6,0.00
2013-7-19,94.8,85.3,74.3,73.6,70.0,65.2,81,62,39,29.97,29.68,11,2,11,0.17
2013-7-21,86.2,77.4,47.7,66.2,64.0,46.3,95,65,45,30.00,29.85,9,1,9,1.75
2013-7-22,83.1,72.8,64.0,69.1,65.4,62.2,97,79,57,29.94,29.68,7,1,7,0.08
2013-7-23,82.0,74.0,70.3,69.2,67.0,66.0,88,79,62,29.74,29.62,8,1,8,0.00
2013-7-25,77.5,68.9,56.1,56.5,53.9,50.9,88,61,43,30.12,0.00,6,1,6,0.00
2013-7-26,77.4,68.3,61.9,61.4,58.0,55.6,83,71,51,30.06,29.85,6,1,6,0.00
2013-7-27,73.0,65.4,58.1,64.6,57.6,48.0,92,77,58,29.91,29.79,8,1,8,0.00
2013-7-28,67.5,58.9,54.3,58.6,52.3,48.0,95,80,56,30.03,29.82,6,1,6,0.50
2013-7-29,68.5,62.2,57.2,57.7,54.6,51.4,93,77,59,30.21,29.97,8,0,8,0.00
2013-7-30,78.6,66.2,53.1,61.2,56.3,0.0,100,73,49,30.30,30.09,6,0,6,0.00
2013-7-31,68.9,67.3,65.5,67.1,64.0,59.7,96,89,73,30.15,29.91,2,0,2,0.37
2013-8-1,79.3,68.6,62.1,66.6,58.5,50.0,98,74,41,29.97,29.91,7,1,8,0.00
2013-8-2,75.0,65.0,58.6,67.9,60.0,52.7,95,84,75,29.97,29.85,7,0,7,0.12
2013-8-3,79.0,68.4,61.3,64.3,56.9,49.0,97,70,37,30.12,29.91,8,1,8,0.00
2013-8-4,74.1,64.8,56.1,55.3,51.7,47.5,87,64,41,30.24,30.09,6,1,6,0.00
2013-8-5,72.5,62.9,52.9,63.1,54.4,48.8,91,75,51,30.18,29.94,5,0,6,0.00
2013-8-6,77.5,69.4,63.1,70.9,65.0,60.5,94,86,72,29.97,29.88,6,0,6,0.05
2013-8-7,79.0,70.4,64.0,74.1,68.1,62.9,98,93,79,29.91,29.79,7,0,7,0.99
2013-8-8,76.6,68.3,60.4,65.0,58.7,53.1,94,74,48,30.00,29.88,6,0,6,0.00
2013-8-9,80.4,69.7,58.3,61.3,57.4,53.7,88,67,43,30.03,29.91,6,0,6,0.00
2013-8-10,79.5,70.7,64.0,63.2,56.9,51.2,89,64,41,30.15,30.00,6,1,6,0.00
2013-8-11,79.7,69.2,60.6,59.5,56.0,53.1,84,64,42,30.18,30.03,6,0,6,0.00
2013-8-12,77.2,69.0,64.0,69.9,64.5,58.9,97,86,70,30.09,29.82,4,0,4,1.58
2013-8-13,68.5,61.5,55.0,64.9,51.5,44.5,95,72,44,30.18,29.85,8,1,8,0.00
2013-8-14,70.2,59.2,48.9,49.9,46.7,44.0,85,65,43,30.30,30.15,5,1,5,0.00
2013-8-15,54.9,53.2,51.4,49.2,48.6,47.7,88,84,81,30.24,30.21,2,0,2,0.00
2013-8-17,79.9,74.1,63.3,56.2,53.6,50.4,75,50,38,30.27,30.15,6,1,6,0.00
2013-8-18,82.0,68.7,56.8,61.1,57.0,53.7,92,69,42,30.27,30.06,6,1,6,0.00
2013-8-19,83.1,70.5,60.3,63.0,58.5,55.5,91,68,43,30.15,30.00,6,0,6,0.00
2013-8-20,85.8,73.1,62.1,67.1,62.0,58.6,91,70,46,30.12,30.00,6,0,6,0.00
2013-8-21,87.1,75.8,66.4,69.5,64.3,62.0,89,69,47,30.06,29.94,7,1,7,0.00
2013-8-22,76.3,69.7,65.3,70.7,66.5,61.8,97,90,63,30.06,29.94,8,0,8,0.58
2013-8-23,78.6,68.9,59.9,66.7,57.7,47.7,98,72,35,30.18,30.03,6,0,6,0.00
2013-8-24,82.4,69.0,57.2,62.3,55.8,51.0,93,66,38,30.30,30.15,6,1,229,0.00
2013-8-25,86.7,73.4,60.8,65.4,61.0,55.8,84,67,47,30.24,30.06,7,1,7,0.00
2013-8-26,84.7,77.0,70.5,71.0,65.4,59.2,77,68,59,30.12,29.91,8,1,8,0.00
2013-8-27,89.1,80.2,72.3,76.2,71.3,68.8,95,75,53,29.97,29.74,8,1,8,0.04
2013-8-28,81.5,76.2,70.2,72.8,70.1,67.8,93,82,69,30.00,29.74,7,1,7,0.00
2013-8-29,87.8,75.4,65.7,69.5,66.5,62.4,97,76,46,30.06,29.94,5,0,5,0.00
2013-8-30,89.2,78.2,68.7,71.8,68.4,65.7,91,74,49,29.97,29.71,7,1,7,0.00
2013-8-31,81.1,73.8,67.3,70.5,66.3,64.3,93,78,59,29.82,29.74,3,0,4,0.00
2013-9-1,85.3,74.7,69.4,71.5,67.5,64.4,92,79,61,29.82,29.68,5,0,5,0.00
2013-9-2,74.7,67.5,59.7,67.6,59.2,48.8,96,76,56,30.00,29.71,9,1,9,0.00
2013-9-3,74.7,64.0,56.7,55.8,52.2,49.3,85,66,48,30.12,29.97,7,1,7,0.00
2013-9-4,79.2,66.9,56.3,61.8,56.7,53.1,90,72,45,30.15,30.03,6,1,6,0.00
2013-9-5,72.1,64.2,57.7,60.6,48.0,39.9,89,59,33,30.30,30.12,7,1,7,0.00
2013-9-6,78.4,65.3,53.8,52.9,49.2,45.5,83,59,33,30.33,30.03,7,1,7,0.00
2013-9-7,85.1,71.8,62.4,65.9,59.5,51.7,80,66,48,30.06,29.85,5,0,5,0.00
2013-9-8,77.9,70.3,66.4,65.3,61.8,57.8,94,76,55,30.06,29.91,9,1,9,0.00
2013-9-9,84.0,71.5,59.4,71.0,64.4,57.2,96,79,61,30.03,29.79,6,1,6,0.00
2013-9-10,93.4,82.0,74.8,70.7,65.5,59.4,80,60,34,29.97,29.85,4,1,6,0.00
2013-9-11,90.0,78.5,70.7,70.5,66.0,62.7,80,66,49,29.97,29.88,8,1,8,0.00
2013-9-12,71.1,70.7,70.2,64.9,64.5,64.1,82,81,80,29.94,29.88,2,0,2,0.00
2013-9-17,59.5,58.2,57.2,48.5,48.0,47.0,70,69,63,30.21,30.15,4,0,4,0.00
2013-9-18,79.2,64.8,52.0,57.6,50.4,46.1,87,62,34,30.18,29.94,8,1,8,0.00
2013-9-19,70.5,67.2,63.0,67.2,62.1,52.4,94,84,60,30.00,29.85,7,1,7,0.00
2013-9-20,72.0,69.7,64.2,69.6,66.3,58.5,97,89,80,29.85,29.74,7,1,7,0.04
2013-9-21,67.8,60.3,55.2,58.4,50.5,42.8,93,71,44,29.88,29.74,7,1,7,0.00
2013-9-22,57.9,53.5,47.1,46.7,42.4,38.4,85,67,51,30.09,29.88,5,0,5,0.00
2013-9-23,65.1,52.2,41.4,48.2,42.8,38.1,91,72,47,30.18,30.06,5,1,5,0.00
2013-9-24,68.9,55.2,43.7,48.1,44.6,40.7,92,70,43,30.15,29.91,8,1,8,0.00
2013-9-25,71.2,57.6,47.5,53.4,47.6,44.4,94,72,44,30.00,29.91,8,0,8,0.00
2013-9-26,76.1,59.9,47.5,54.2,47.6,43.7,93,68,35,30.15,29.97,115,0,115,0.00
2013-9-27,78.1,62.4,48.7,55.4,49.5,45.3,90,66,36,30.21,30.09,8,1,8,0.00
2013-9-28,79.5,65.3,52.9,57.1,50.5,46.5,91,62,34,30.18,29.91,11,1,11,0.00
2013-9-29,68.0,62.6,56.3,59.8,52.6,47.6,92,71,52,30.03,29.88,5,0,5,0.00
2013-9-30,71.4,59.1,48.9,54.9,49.0,44.9,94,72,41,30.00,29.85,8,1,8,0.00
2013-10-1,70.9,63.9,55.2,62.5,58.4,50.4,96,83,69,30.00,29.91,7,1,7,0.00
2013-10-2,78.3,66.8,59.4,63.0,52.3,41.9,96,65,30,30.12,29.94,4,0,4,0.00
2013-10-3,72.9,65.2,57.4,66.2,58.9,47.1,93,80,64,30.00,29.88,6,1,6,0.00
2013-10-4,67.1,66.0,64.9,64.0,62.9,62.2,95,90,86,30.00,29.91,4,0,4,0.38
2013-10-15,61.5,61.3,60.8,60.7,60.3,59.7,97,96,96,29.82,29.47,4,1,4,19.33
2013-10-16,60.8,52.2,48.7,59.7,48.4,44.1,96,87,81,29.88,29.79,6,1,6,0.00
2013-10-21,50.2,46.1,40.6,48.5,38.3,25.5,94,75,55,29.88,29.79,7,1,7,0.21
2013-10-22,48.2,41.1,34.2,32.6,28.7,24.2,78,62,49,29.94,29.85,6,1,6,0.00
2013-10-23,46.9,37.4,34.0,33.9,32.0,29.1,94,82,53,29.97,29.85,4,0,4,0.16
2013-10-24,35.8,34.8,34.3,34.0,33.2,32.5,95,94,92,30.00,29.97,2,0,2,0.00
2013-10-28,54.9,46.6,38.8,37.2,33.8,30.0,77,61,49,30.36,30.21,6,1,6,0.00
2013-10-29,54.5,44.0,36.9,38.7,33.5,28.5,80,67,52,30.41,30.24,6,1,6,0.00
2013-10-30,65.1,52.0,39.9,55.2,44.2,35.5,96,76,46,30.27,29.88,9,1,9,0.42
2013-10-31,61.2,59.5,54.3,60.6,58.8,53.0,98,97,95,29.88,29.14,12,1,12,2.15
2013-11-1,54.1,47.3,45.1,53.0,42.7,36.7,98,85,65,29.71,29.23,8,2,8,0.17
2013-11-2,50.5,45.6,42.1,45.0,41.0,35.7,97,85,61,30.06,29.68,4,0,4,0.12
2013-11-3,52.7,42.6,33.6,38.8,32.7,29.5,91,69,46,30.33,30.03,6,1,6,0.00
2013-11-4,54.7,44.5,37.6,38.8,31.8,27.9,79,62,41,30.36,30.18,10,2,10,0.00
2013-11-5,55.4,51.9,48.9,47.2,43.0,37.5,81,72,64,30.30,30.09,8,1,8,0.00
2013-11-6,55.8,50.7,41.0,54.8,46.9,38.6,98,88,58,30.09,29.79,9,2,9,0.79
2013-11-7,49.6,39.6,33.6,38.6,29.8,26.1,91,69,44,30.18,30.06,7,1,7,0.00
2013-11-8,48.4,38.8,31.6,34.3,29.6,25.1,94,72,44,30.27,30.06,6,1,6,0.12
2013-11-9,57.0,48.4,40.8,38.6,32.6,26.3,64,54,48,30.06,29.76,13,3,13,0.00
2013-11-10,50.0,42.4,36.9,29.5,26.8,22.6,68,54,43,30.27,29.91,10,2,10,0.00
2013-11-11,44.4,36.9,25.9,37.5,28.2,17.5,93,72,58,30.33,30.00,7,1,7,0.17
2013-11-12,33.1,25.6,23.0,22.1,18.7,16.9,83,75,53,30.53,30.33,6,0,6,0.00
2013-11-13,40.5,34.1,25.0,20.9,16.4,12.1,78,49,34,30.41,30.12,10,3,10,0.00
2013-11-14,50.2,42.6,31.6,24.9,20.4,15.0,50,41,37,30.15,29.91,10,3,10,0.00
2013-11-15,51.3,43.4,35.8,27.1,23.5,19.6,60,46,37,30.00,29.91,172,1,172,0.00
2013-11-16,56.1,48.3,38.5,55.6,42.0,26.4,98,79,59,30.03,29.65,11,3,11,0.13
2013-11-17,63.0,59.6,56.1,60.3,58.1,54.1,98,95,88,29.65,29.20,15,3,15,0.53
2013-12-5,36.3,31.7,29.1,25.4,19.4,16.6,68,60,53,30.12,29.85,5,2,5,0.53
2013-12-6,29.3,25.3,20.5,17.5,13.9,11.2,76,62,54,30.36,30.09,7,1,7,0.53
2013-12-7,25.9,20.0,13.8,15.5,10.2,6.8,78,66,49,30.53,30.33,5,1,5,0.00
2013-12-8,68.2,20.3,13.8,32.0,12.6,6.9,87,72,26,30.50,29.88,5,1,5,0.53
2013-12-9,28.4,23.7,16.5,24.5,18.2,6.1,91,80,62,30.06,29.79,6,2,6,0.53
2013-12-10,21.9,15.9,5.9,16.6,7.3,-1.9,82,68,48,30.15,29.85,11,2,11,0.53
2013-12-11,24.3,18.2,12.9,17.6,10.4,4.0,82,72,51,30.33,30.09,6,1,6,0.53
2013-12-12,13.3,12.7,12.2,4.4,3.8,3.3,67,67,67,30.36,30.33,3,1,3,0.00
2013-12-13,32.2,27.0,23.4,18.1,16.6,13.5,73,65,54,30.12,30.03,4,1,4,0.00
2013-12-14,25.0,21.1,18.9,17.8,16.0,14.3,85,80,72,30.15,29.74,5,2,5,0.00
2013-12-15,24.6,20.7,17.6,21.9,14.0,7.5,90,75,62,29.94,29.74,5,1,5,0.00
2013-12-16,25.0,17.8,9.3,12.8,8.6,2.7,78,67,50,30.09,29.91,6,1,6,0.00
2013-12-17,29.1,24.3,17.2,25.3,19.9,11.3,90,83,74,29.94,29.85,8,2,8,0.00
2013-12-18,32.5,27.7,23.5,25.4,16.7,9.6,89,64,48,30.12,29.79,10,2,10,0.00
2013-12-19,44.1,37.3,30.4,33.7,29.5,15.6,89,74,54,29.94,29.79,6,1,6,0.29
2013-12-20,36.9,34.3,32.2,35.9,33.4,31.7,98,97,89,29.85,29.68,4,0,4,0.37
2013-12-21,34.7,33.1,31.6,34.0,32.6,30.9,98,98,96,29.79,29.59,4,0,4,0.50
2013-12-22,32.2,31.9,31.5,31.7,31.3,30.7,98,98,97,29.62,29.47,0,0,0,0.21
2013-12-27,42.4,36.3,29.1,30.8,27.8,25.4,89,72,55,30.24,29.97,7,2,7,0.29
2013-12-28,47.7,40.3,33.1,31.3,29.0,27.0,80,65,49,30.06,29.79,11,2,11,0.17
2013-12-29,39.9,32.5,20.5,30.5,23.3,11.8,87,69,59,30.00,29.68,8,2,8,0.17
2013-12-30,23.2,18.5,15.4,12.7,8.3,3.9,74,64,53,30.21,30.00,5,1,5,0.17
2013-12-31,19.6,15.2,13.5,12.9,8.8,5.8,80,75,64,30.24,30.03,6,2,7,0.00
2014-1-1,15.1,12.6,10.2,9.7,5.4,1.5,81,72,66,30.27,30.09,6,1,6,0.17
2014-1-2,14.5,10.7,2.8,4.9,-0.7,-11.6,67,60,50,30.24,30.00,10,2,10,0.17